Weather History for Stafford, VA

Change the Weather History Date:

Sunday, February 3, 2013

  Actual Average (KNYG) Record (KNYG)
Temperature  
Mean Temperature 28 °F -  
Max Temperature 36 °F 43 °F 62 °F (2006)
Min Temperature 21 °F 27 °F 23 °F (2000)
Degree Days  
Heating Degree Days 36    
Moisture  
Dew Point 27 °F    
Average Humidity 91    
Maximum Humidity 99    
Minimum Humidity 67    
Precipitation  
Precipitation 0.00 in - - ()
Sea Level Pressure  
Sea Level Pressure 29.95 in    
Wind  
Wind Speed 1 mph (NNW)    
Max Wind Speed 13 mph    
Max Gust Speed 17 mph    
Visibility 8 miles    
Events Snow    
Averages and records for this station are not official NWS values.
T = Trace of Precipitation, MM = Missing Value Source: NWS Daily Summary

Daily Weather History Graph

Daily Weather History Graph

Search for Another Location

Airport:

Trip Planner

Search our weather history database for the weather conditions in past years. The results will help you decide how hot, cold, wet, or windy it might be!

Date:

Astronomy

Feb. 03, 2013 Rise Set
Actual Time 7:13 AM EST 5:34 PM EST
Civil Twilight 6:45 AM EST 6:02 PM EST
Nautical Twilight 6:13 AM EST 6:34 PM EST
Astronomical Twilight 5:42 AM EST 7:05 PM EST
Moon 12:38 AM EST (2/3) 11:11 AM EST (2/3)
Length of Visible Light 11h 17m
Length of Day
10h 21m
Waning Gibbous, 49% of the Moon is Illuminated
Feb 3
Waning Gibbous
Feb 10
New
Feb 17
First Quarter
Feb 25
Full
Mar 4
Last Quarter

Hourly Weather History & Observations

Time (EST) Temp. Windchill Dew Point Humidity Pressure Visibility Wind Dir Wind Speed Gust Speed Precip Events Conditions
12:15 AM 27.1 °F - 26.4 °F 97% 30.04 in 10.0 mi Calm Calm - N/A   Mostly Cloudy
12:35 AM 26.4 °F - 25.9 °F 98% 30.03 in 10.0 mi Calm Calm - N/A   Clear
12:55 AM 25.5 °F - 25.2 °F 99% 30.02 in 7.0 mi Calm Calm - N/A   Mostly Cloudy
1:15 AM 26.1 °F - 25.9 °F 99% 30.01 in 7.0 mi Calm Calm - N/A   Mostly Cloudy
1:35 AM 26.1 °F - 25.5 °F 98% 30.01 in 10.0 mi Calm Calm - N/A   Clear
1:55 AM 26.1 °F - 25.3 °F 97% 30.01 in 10.0 mi Calm Calm - N/A   Clear
2:15 AM 26.2 °F - 25.2 °F 96% 30.00 in 10.0 mi Calm Calm - N/A   Clear
2:35 AM 26.2 °F - 25.5 °F 97% 30.00 in 10.0 mi Calm Calm - N/A   Clear
2:55 AM 23.0 °F - 22.1 °F 96% 29.99 in 10.0 mi Calm Calm - N/A   Clear
3:15 AM 24.3 °F - 24.1 °F 99% 29.98 in 7.0 mi Calm Calm - N/A   Clear
3:35 AM 22.1 °F - 21.4 °F 97% 29.97 in 7.0 mi Calm Calm - N/A   Clear
3:55 AM 21.9 °F - 21.4 °F 98% 29.97 in 7.0 mi Calm Calm - N/A   Scattered Clouds
4:15 AM 22.1 °F - 21.7 °F 99% 29.97 in 10.0 mi Calm Calm - N/A   Scattered Clouds
4:55 AM 21.0 °F - 20.3 °F 97% 29.96 in 10.0 mi Calm Calm - N/A   Scattered Clouds
5:15 AM 22.1 °F - 21.6 °F 98% 29.97 in 10.0 mi Calm Calm - N/A   Scattered Clouds
5:35 AM 21.6 °F - 20.5 °F 96% 29.96 in 10.0 mi Calm Calm - N/A   Mostly Cloudy
5:55 AM 21.2 °F - 20.3 °F 96% 29.97 in 10.0 mi Calm Calm - N/A   Mostly Cloudy
6:15 AM 21.6 °F - 20.7 °F 96% 29.97 in 10.0 mi Calm Calm - N/A   Overcast
6:35 AM 22.8 °F - 22.1 °F 97% 29.97 in 10.0 mi Calm Calm - N/A   Overcast
6:55 AM 23.5 °F - 22.8 °F 97% 29.97 in 10.0 mi Calm Calm - N/A   Overcast
7:15 AM 24.6 °F - 23.9 °F 97% 29.97 in 10.0 mi Calm Calm - N/A   Overcast
7:35 AM 23.9 °F - 23.2 °F 97% 29.98 in 10.0 mi Calm Calm - N/A   Overcast
7:55 AM 24.4 °F - 23.7 °F 97% 29.98 in 10.0 mi Calm Calm - N/A   Overcast
8:15 AM 25.3 °F - 24.4 °F 96% 29.99 in 10.0 mi Calm Calm - N/A   Overcast
8:35 AM 26.8 °F - 26.2 °F 98% 29.99 in 7.0 mi Calm Calm - N/A   Overcast
8:55 AM 28.4 °F - 27.5 °F 96% 29.99 in 4.0 mi Calm Calm - N/A Snow Light Snow
9:15 AM 28.9 °F - 28.0 °F 96% 29.98 in 2.5 mi Calm Calm - N/A Snow Light Snow
9:35 AM 29.3 °F - 28.4 °F 96% 29.98 in 2.0 mi Calm Calm - N/A Snow Light Snow
9:55 AM 30.0 °F - 29.1 °F 96% 29.98 in 3.0 mi Calm Calm - N/A Snow Light Snow
10:15 AM 31.1 °F - 29.3 °F 93% 29.98 in 2.0 mi Calm Calm - N/A Snow Light Snow
10:35 AM 31.1 °F - 29.3 °F 93% 29.97 in 1.5 mi Calm Calm - N/A Snow Light Snow
10:55 AM 31.1 °F - 29.1 °F 92% 29.97 in 2.0 mi Calm Calm - N/A Snow Light Snow
11:15 AM 31.1 °F 27.7 °F 29.5 °F 94% 29.97 in 1.5 mi East 3.5 mph - N/A Snow Light Snow
11:35 AM 31.5 °F - 28.6 °F 89% 29.96 in 7.0 mi Calm Calm - N/A   Overcast
11:55 AM 31.1 °F - 28.0 °F 88% 29.96 in 1.0 mi Calm Calm - N/A Snow Light Snow
12:15 PM 31.3 °F - 29.3 °F 92% 29.95 in 1.0 mi Calm Calm - N/A Snow Light Snow
12:35 PM 31.5 °F - 29.8 °F 94% 29.94 in 4.0 mi Calm Calm - N/A Snow Light Snow
12:55 PM 32.0 °F 28.7 °F 30.0 °F 92% 29.92 in 2.0 mi SE 3.5 mph - N/A Snow Light Snow
1:15 PM 32.9 °F 29.8 °F 30.4 °F 90% 29.91 in 4.0 mi SSE 3.5 mph - N/A Snow Light Snow
1:35 PM 33.3 °F - 30.0 °F 88% 29.90 in 10.0 mi Calm Calm - N/A   Overcast
1:55 PM 32.9 °F - 29.7 °F 88% 29.89 in 10.0 mi Calm Calm - N/A   Overcast
2:15 PM 33.8 °F - 29.8 °F 85% 29.89 in 5.0 mi Calm Calm - N/A Snow Light Snow
2:35 PM 33.6 °F - 30.0 °F 87% 29.89 in 10.0 mi Calm Calm - N/A   Overcast
2:55 PM 34.7 °F - 30.2 °F 84% 29.89 in 10.0 mi Calm Calm - N/A   Overcast
3:15 PM 34.5 °F - 29.8 °F 83% 29.89 in 10.0 mi Calm Calm - N/A   Mostly Cloudy
3:35 PM 34.7 °F - 29.7 °F 82% 29.89 in 10.0 mi Calm Calm - N/A   Scattered Clouds
3:55 PM 35.8 °F - 29.7 °F 78% 29.89 in 10.0 mi Calm Calm - N/A   Scattered Clouds
4:15 PM 36.5 °F 33.9 °F 30.7 °F 80% 29.88 in 10.0 mi SSE 3.5 mph - N/A   Mostly Cloudy
4:35 PM 35.8 °F - 29.5 °F 78% 29.88 in 10.0 mi Calm Calm - N/A   Scattered Clouds
4:55 PM 34.7 °F - 30.2 °F 84% 29.88 in 10.0 mi Calm Calm - N/A   Scattered Clouds
5:15 PM 34.7 °F - 30.4 °F 84% 29.88 in 10.0 mi Calm Calm - N/A   Clear
5:35 PM 33.4 °F 30.4 °F 30.7 °F 90% 29.88 in 10.0 mi ENE 3.5 mph - N/A   Clear
5:55 PM 32.0 °F 28.7 °F 30.2 °F 93% 29.89 in 10.0 mi ENE 3.5 mph - N/A   Scattered Clouds
6:15 PM 32.0 °F - 30.6 °F 94% 29.89 in 10.0 mi Calm Calm - N/A   Overcast
6:35 PM 31.8 °F - 30.0 °F 93% 29.89 in 10.0 mi Calm Calm - N/A   Overcast
6:55 PM 30.9 °F - 29.3 °F 94% 29.90 in 10.0 mi Calm Calm - N/A   Overcast
7:15 PM 31.1 °F - 29.8 °F 95% 29.91 in 10.0 mi Calm Calm - N/A   Overcast
7:55 PM 30.9 °F - 30.0 °F 96% 29.92 in 10.0 mi Calm Calm - N/A   Overcast
8:15 PM 31.1 °F - 30.0 °F 96% 29.92 in 10.0 mi Calm Calm - N/A   Overcast
8:35 PM 31.3 °F 27.9 °F 30.2 °F 96% 29.93 in 10.0 mi SW 3.5 mph - N/A   Overcast
8:55 PM 32.0 °F - 30.2 °F 93% 29.94 in 10.0 mi Calm Calm - N/A   Overcast
9:15 PM 32.0 °F - 30.2 °F 93% 29.95 in 10.0 mi Calm Calm - N/A   Overcast
9:35 PM 31.8 °F - 30.2 °F 94% 29.96 in 10.0 mi Calm Calm - N/A   Overcast
9:55 PM 32.9 °F 25.9 °F 28.9 °F 85% 29.97 in 10.0 mi WNW 8.1 mph - N/A   Overcast
10:15 PM 33.4 °F 24.3 °F 26.1 °F 74% 29.97 in 10.0 mi NW 12.7 mph - N/A   Mostly Cloudy
10:35 PM 33.1 °F 24.4 °F 23.5 °F 68% 29.97 in 10.0 mi WNW 11.5 mph - N/A   Scattered Clouds
10:55 PM 32.4 °F 24.6 °F 22.5 °F 67% 29.98 in 10.0 mi NNW 9.2 mph - N/A   Clear
11:15 PM 31.8 °F 22.3 °F 24.4 °F 74% 29.99 in 10.0 mi NW 12.7 mph - N/A   Scattered Clouds
11:35 PM 32.0 °F 23.0 °F 22.3 °F 67% 30.00 in 10.0 mi NW 11.5 mph 17.3 mph N/A   Overcast
11:55 PM 30.4 °F 22.9 °F 22.3 °F 72% 30.01 in 10.0 mi NNW 8.1 mph - N/A   Mostly Cloudy